Weather History for KSSF - December, 2012

Change the Weather History Date:

Sunday, December 16, 2012

  Actual Average Record
Temperature  
Mean Temperature 61 °F -  
Max Temperature 70 °F 61 °F 78 °F (2006)
Min Temperature 50 °F 38 °F 30 °F (1999)
Degree Days  
Heating Degree Days 4    
Growing Degree Days 11 (Base 50)    
Moisture  
Dew Point 57 °F    
Average Humidity 82    
Maximum Humidity 100    
Minimum Humidity 38    
Precipitation  
Precipitation 0.03 in - - ()
Sea Level Pressure  
Sea Level Pressure 29.82 in    
Wind  
Wind Speed 4 mph (NNE)    
Max Wind Speed 12 mph    
Max Gust Speed 17 mph    
Visibility 6 miles    
Events Rain    
Averages and records for this station are not official NWS values.
T = Trace of Precipitation, MM = Missing Value Source: NWS Daily Summary

Daily Weather History Graph

Daily Weather History Graph

Search for Another Location

Airport or City:

Trip Planner

Search our weather history database for the weather conditions in past years. The results will help you decide how hot, cold, wet, or windy it might be!

Date:

Astronomy

Dec. 16, 2012 Rise Set
Actual Time 7:21 AM CST 5:38 PM CST
Civil Twilight 6:55 AM CST 6:04 PM CST
Nautical Twilight 6:25 AM CST 6:33 PM CST
Astronomical Twilight 5:56 AM CST 7:02 PM CST
Moon 10:09 AM CST (12/16) 9:38 PM CST (12/16)
Length of Visible Light 11h 08m
Length of Day
10h 16m
Waxing Crescent, 16% of the Moon is Illuminated
Dec 16
Waxing Crescent
Dec 19
First Quarter
Dec 28
Full
Jan 4
Last Quarter
Jan 11
New

Hourly Weather History & Observations

Time (CST) Temp. Dew Point Humidity Pressure Visibility Wind Dir Wind Speed Gust Speed Precip Events Conditions
12:48 AM 60.8 °F 51.8 °F 72% 29.82 in 10.0 mi ESE 4.6 mph - N/A   Scattered Clouds
12:53 AM 61.0 °F 51.1 °F 70% 29.80 in 10.0 mi East 5.8 mph - N/A   Scattered Clouds
1:06 AM 62.6 °F 50.0 °F 63% 29.81 in 10.0 mi East 4.6 mph - N/A   Mostly Cloudy
1:53 AM 64.0 °F 53.1 °F 67% 29.78 in 10.0 mi East 3.5 mph - N/A   Overcast
2:53 AM 64.0 °F 55.9 °F 75% 29.78 in 10.0 mi Calm Calm - N/A   Overcast
3:41 AM 62.6 °F 60.8 °F 94% 29.80 in 2.0 mi Calm Calm - N/A   Overcast
3:53 AM 62.1 °F 60.1 °F 93% 29.80 in 4.0 mi Calm Calm - N/A   Overcast
5:53 AM 62.1 °F 62.1 °F 100% 29.81 in 3.0 mi SE 8.1 mph - 0.02 in Rain Light Rain
6:16 AM 62.6 °F 62.6 °F 100% 29.83 in 4.0 mi North 4.6 mph - 0.00 in Rain Light Rain
6:43 AM 62.6 °F 62.6 °F 100% 29.81 in 4.0 mi Calm Calm - 0.00 in Rain Light Rain
6:53 AM 63.0 °F 63.0 °F 100% 29.80 in 4.0 mi Calm Calm - 0.01 in Rain Light Rain
7:41 AM 62.6 °F 62.6 °F 100% 29.86 in 4.0 mi West 3.5 mph - 0.00 in Rain Light Rain
7:50 AM 64.4 °F 62.6 °F 94% 29.85 in 4.0 mi Calm Calm - 0.00 in   Overcast
7:53 AM 64.0 °F 63.0 °F 96% 29.84 in 4.0 mi Calm Calm - 0.00 in Rain Light Rain
8:16 AM 64.4 °F 64.4 °F 100% 29.87 in 2.0 mi WSW 11.5 mph - 0.00 in   Overcast
8:43 AM 64.4 °F 64.4 °F 100% 29.82 in 1.8 mi ESE 4.6 mph - 0.00 in   Mostly Cloudy
8:53 AM 64.0 °F 64.0 °F 100% 29.80 in 1.5 mi East 4.6 mph - 0.00 in   Mostly Cloudy
9:15 AM 64.4 °F 64.4 °F 100% 29.80 in 1.2 mi ESE 5.8 mph - N/A   Overcast
9:53 AM 66.0 °F 66.0 °F 100% 29.84 in 2.0 mi NNW 9.2 mph - N/A   Overcast
10:01 AM 66.2 °F 66.2 °F 100% 29.85 in 2.5 mi NNW 9.2 mph - N/A   Overcast
10:07 AM 66.2 °F 66.2 °F 100% 29.86 in 3.0 mi NW 10.4 mph 17.3 mph N/A   Overcast
10:17 AM 66.2 °F 66.2 °F 100% 29.86 in 4.0 mi NW 9.2 mph 17.3 mph N/A   Mostly Cloudy
11:53 AM 70.0 °F 59.0 °F 68% 29.81 in 10.0 mi Variable 5.8 mph - N/A   Clear
12:53 PM 70.0 °F 51.1 °F 51% 29.80 in 10.0 mi NNW 4.6 mph - N/A   Clear
1:53 PM 70.0 °F 44.1 °F 39% 29.78 in 10.0 mi North 6.9 mph - N/A   Clear
2:53 PM 70.0 °F 46.0 °F 42% 29.77 in 10.0 mi Calm Calm - N/A   Clear
3:53 PM 70.0 °F 43.0 °F 38% 29.77 in 10.0 mi Calm Calm - N/A   Clear
4:53 PM 66.0 °F 50.0 °F 56% 29.77 in 10.0 mi Calm Calm - N/A   Clear
5:53 PM 62.1 °F 50.0 °F 65% 29.77 in 10.0 mi Calm Calm - N/A   Clear
6:53 PM 57.0 °F 48.9 °F 74% 29.79 in 10.0 mi Calm Calm - N/A   Clear
7:53 PM 55.9 °F 50.0 °F 80% 29.82 in 9.0 mi Calm Calm - N/A   Clear
8:53 PM 54.0 °F 50.0 °F 86% 29.84 in 9.0 mi Calm Calm - N/A   Clear
9:53 PM 52.0 °F 48.0 °F 86% 29.85 in 10.0 mi Calm Calm - N/A   Clear
10:53 PM 50.0 °F 48.0 °F 93% 29.86 in 7.0 mi Calm Calm - N/A   Clear